Torna al catalogo

YAOGAN-36 02C

AttivoMilitareVLEO
NORAD 54045·PAYLOAD·🇨🇳 China

Lanciato Oct 14, 2022 da Xichang Satellite Launch Center

Loading…

Prossimi Passaggi (prossime 24 ore)

TLE

AggiornatoSource: Space-Track

Epoca: Sep 14, 2026, 22:56 UTC

1 54045U 22133D   26257.95620207  .00070589  00000-0  96135-3 0  9998
2 54045  34.9874 203.2152 0008175 311.4276  48.5746 15.56316260219185

Traccia YAOGAN-36 02C in tempo reale con AllMySat

Download on the App Store